Location: Antin
(43.3330°N, 0.2804°E)
Time: 17:08:27
(UTC+00:00)

IRIDIUM 33 DEB - Visible Passes

Search period start: 11 August 2022 00:00
Search period end: 21 August 2022 00:00
Orbit: 671 x 723 km, 86.4° (Epoch: 10 August)

Date Brightness Start Highest point End Pass type
(mag) Time Alt. Az. Time Alt. Az. Time Alt. Az.
12 Aug ? 20:02:26 10° W 20:04:28 12° WNW 20:06:30 10° NW visible
14 Aug ? 19:46:17 10° WSW 19:48:43 14° WNW 19:51:09 10° NW visible
15 Aug ? 04:24:29 10° NE 04:26:34 13° ENE 04:28:39 10° E visible
16 Aug ? 19:30:08 10° WSW 19:32:54 15° WNW 19:35:39 10° NW visible
17 Aug ? 04:09:11 10° NE 04:10:44 11° ENE 04:12:16 10° E visible
19 Aug ? 03:54:16 10° ENE 03:54:49 10° ENE 03:55:23 10° ENE visible
20 Aug ? 04:32:49 10° NNE 04:36:55 29° E 04:40:58 10° SE visible
